Weather History for KBFM - November, 2012

Change the Weather History Date:

Wednesday, November 21, 2012

  Actual Average Record
Temperature  
Mean Temperature 58 °F -  
Max Temperature 73 °F 66 °F 79 °F (1996)
Min Temperature 44 °F 47 °F 32 °F (2000)
Degree Days  
Heating Degree Days 6    
Growing Degree Days 8 (Base 50)    
Moisture  
Dew Point 48 °F    
Average Humidity 85    
Maximum Humidity 100    
Minimum Humidity 44    
Precipitation  
Precipitation 0.00 in - - ()
Sea Level Pressure  
Sea Level Pressure 30.18 in    
Wind  
Wind Speed 1 mph (NW)    
Max Wind Speed 9 mph    
Max Gust Speed -    
Visibility 7 miles    
Events Fog    
Averages and records for this station are not official NWS values.
T = Trace of Precipitation, MM = Missing Value Source: NWS Daily Summary

Daily Weather History Graph

Daily Weather History Graph

Search for Another Location

Airport or City:

Trip Planner

Search our weather history database for the weather conditions in past years. The results will help you decide how hot, cold, wet, or windy it might be!

Date:

Astronomy

Nov. 21, 2012 Rise Set
Actual Time 6:23 AM CST 4:52 PM CST
Civil Twilight 5:58 AM CST 5:18 PM CST
Nautical Twilight 5:28 AM CST 5:47 PM CST
Astronomical Twilight 4:59 AM CST 6:16 PM CST
Moon 12:46 PM CST (11/21) 12:08 AM CST (11/21)
Length of Visible Light 11h 20m
Length of Day
10h 28m
First Quarter, 62% of the Moon is Illuminated
Nov 21
First Quarter
Nov 28
Full
Dec 6
Last Quarter
Dec 13
New
Dec 19
First Quarter

Hourly Weather History & Observations

Time (CST) Temp. Dew Point Humidity Pressure Visibility Wind Dir Wind Speed Gust Speed Precip Events Conditions
12:53 AM 46.9 °F 46.0 °F 97% 30.16 in 4.0 mi Calm Calm - N/A   Clear
1:05 AM 46.4 °F 44.6 °F 93% 30.16 in 1.8 mi Calm Calm - N/A   Clear
1:18 AM 46.4 °F 46.4 °F 100% 30.16 in 3.0 mi Calm Calm - N/A   Clear
1:53 AM 45.0 °F 45.0 °F 100% 30.16 in 7.0 mi Calm Calm - N/A   Clear
2:53 AM 46.0 °F 45.0 °F 96% 30.16 in 6.0 mi Calm Calm - N/A   Clear
3:18 AM 44.6 °F 44.6 °F 100% 30.16 in 10.0 mi Calm Calm - N/A   Clear
3:53 AM 44.1 °F 43.0 °F 96% 30.16 in 10.0 mi Calm Calm - N/A   Clear
4:04 AM 44.6 °F 44.6 °F 100% 30.16 in 2.5 mi Calm Calm - N/A   Clear
4:14 AM 44.6 °F 44.6 °F 100% 30.17 in 3.0 mi Calm Calm - N/A   Clear
4:53 AM 44.1 °F 43.0 °F 96% 30.17 in 10.0 mi Calm Calm - N/A   Clear
5:53 AM 44.1 °F 43.0 °F 96% 30.18 in 6.0 mi Calm Calm - N/A   Clear
6:53 AM 48.0 °F 45.0 °F 89% 30.19 in 10.0 mi Calm Calm - N/A   Partly Cloudy
7:53 AM 54.0 °F 48.9 °F 83% 30.21 in 10.0 mi NW 4.6 mph - N/A   Partly Cloudy
8:53 AM 61.0 °F 48.0 °F 62% 30.23 in 10.0 mi NW 6.9 mph - N/A   Partly Cloudy
9:53 AM 68.0 °F 46.9 °F 47% 30.22 in 10.0 mi North 9.2 mph - N/A   Clear
10:53 AM 66.0 °F 52.0 °F 60% 30.20 in 10.0 mi ENE 6.9 mph - N/A   Clear
11:53 AM 69.1 °F 50.0 °F 51% 30.17 in 10.0 mi ENE 6.9 mph - N/A   Clear
12:53 PM 71.1 °F 51.1 °F 49% 30.15 in 10.0 mi East 5.8 mph - N/A   Scattered Clouds
1:53 PM 73.0 °F 50.0 °F 44% 30.13 in 10.0 mi Variable 3.5 mph - N/A   Scattered Clouds
2:53 PM 71.1 °F 52.0 °F 51% 30.13 in 10.0 mi SE 3.5 mph - N/A   Scattered Clouds
3:53 PM 70.0 °F 50.0 °F 49% 30.13 in 10.0 mi SSE 3.5 mph - N/A   Partly Cloudy
4:53 PM 62.1 °F 54.0 °F 75% 30.14 in 10.0 mi Calm Calm - N/A   Clear
5:53 PM 59.0 °F 53.1 °F 81% 30.16 in 10.0 mi SW 4.6 mph - N/A   Clear
6:53 PM 59.0 °F 52.0 °F 78% 30.17 in 10.0 mi WSW 5.8 mph - N/A   Clear
7:53 PM 59.0 °F 54.0 °F 83% 30.19 in 10.0 mi WSW 4.6 mph - N/A   Clear
8:53 PM 51.1 °F 51.1 °F 100% 30.20 in 7.0 mi Calm Calm - N/A   Clear
9:37 PM 51.8 °F 51.8 °F 100% 30.20 in 2.0 mi Calm Calm - N/A   Clear
9:53 PM 50.0 °F 50.0 °F 100% 30.20 in 2.5 mi Calm Calm - N/A   Clear
10:04 PM 50.0 °F 50.0 °F 100% 30.20 in 1.5 mi Calm Calm - N/A   Clear
10:25 PM 48.2 °F 48.2 °F 100% 30.21 in 0.5 mi Calm Calm - N/A Fog Fog
10:45 PM 50.0 °F 50.0 °F 100% 30.20 in 2.0 mi Calm Calm - N/A   Clear
10:53 PM 50.0 °F 48.9 °F 96% 30.20 in 3.0 mi Calm Calm - N/A   Clear
11:01 PM 48.2 °F 48.2 °F 100% 30.20 in 2.0 mi NW 3.5 mph - N/A   Clear
11:13 PM 48.2 °F 48.2 °F 100% 30.20 in 5.0 mi NW 3.5 mph - N/A   Clear
11:53 PM 50.0 °F 48.9 °F 96% 30.20 in 8.0 mi Calm Calm - N/A   Clear